Location: Newark
(45.9456°N, 15.4064°E)
Time: 01:32:48
(UTC+00:00)

Vanguard 3 - Pass Details

Date: 31 January 2020
Orbit: 508 x 3263 km, 33.3° (Epoch: 21 February)

Event Time Altitude Azimuth Distance (km) Brightness Sun altitude
Rises 19:29:08 0° 274° (W) 7,212 13.0 -36.1°
Reaches altitude 10° 19:34:29 10° 268° (W) 6,200 12.3 -37.0°
Maximum altitude 19:51:23 39° 210° (SSW) 3,731 10.4 -39.8°
Enters shadow 19:56:12 33° 178° (S) 3,703 10.2 -40.6°
Drops below altitude 10° 20:03:50 10° 147° (SSE) 4,600 - -41.8°
Sets 20:07:09 0° 140° (SE) 5,254 - -42.4°
